When you browse on this site, cookies collect data to enhance your experience and personalize the content and advertising you see.
Visit our Privacy Policy to learn more. By continuing to use the site, you agree to this use of cookies and data.
  • în România
  • Lista ţărilor
  • Pe 7 zile
  • Temperatura apei
  • Hartă satelitară
  • Meteo pe hartă
  • Widget-uri
  • user-avatar
    Intrare

    Meteo pe oră la Mingachevir

    Astăzi, 19 Aprilie, Vineri

    Timp Temperatura Precipitaţii Vânt Presiune Umiditate
    00:00 +9°C° 0.3 mm 5 m/s 753 mmHg 76%
    01:00 +8°C° 0.1 mm 5 m/s 752 mmHg 77%
    02:00 +8°C° 0.1 mm 5 m/s 752 mmHg 77%
    03:00 +8°C° 0.1 mm 4 m/s 752 mmHg 78%
    04:00 +8°C° 0.6 mm 4 m/s 752 mmHg 79%
    05:00 +7°C° 0.6 mm 4 m/s 753 mmHg 81%
    06:00 +7°C° 0.6 mm 4 m/s 753 mmHg 83%
    07:00 +7°C° 0.5 mm 4 m/s 753 mmHg 82%
    08:00 +7°C° 0.5 mm 4 m/s 753 mmHg 82%
    09:00 +7°C° 0.5 mm 4 m/s 753 mmHg 81%
    10:00 +8°C° 0.2 mm 4 m/s 753 mmHg 79%
    11:00 +8°C° 0.2 mm 4 m/s 753 mmHg 77%
    12:00 +10°C° 0.2 mm 4 m/s 752 mmHg 75%
    13:00 +10°C° 0.2 mm 4 m/s 752 mmHg 76%
    14:00 +10°C° 0.2 mm 4 m/s 752 mmHg 76%
    15:00 +10°C° 0.2 mm 4 m/s 752 mmHg 76%
    16:00 +8°C° 0.4 mm 5 m/s 752 mmHg 78%
    17:00 +8°C° 0.4 mm 5 m/s 753 mmHg 80%
    18:00 +7°C° 0.4 mm 5 m/s 753 mmHg 82%
    19:00 +7°C° 0.3 mm 5 m/s 753 mmHg 83%
    20:00 +7°C° 0.3 mm 5 m/s 753 mmHg 85%
    21:00 +6°C° 0.3 mm 5 m/s 754 mmHg 87%
    22:00 +6°C° 0.3 mm 5 m/s 754 mmHg 87%
    23:00 +6°C° 0.3 mm 5 m/s 754 mmHg 87%

    Mâine, 20 Aprilie, Sâmbătă

    Timp Temperatura Precipitaţii Vânt Presiune Umiditate
    00:00 +6°C° 0.3 mm 5 m/s 753 mmHg 87%
    01:00 +6°C° 0.4 mm 5 m/s 753 mmHg 87%
    02:00 +5°C° 0.4 mm 5 m/s 753 mmHg 87%
    03:00 +5°C° 0.4 mm 5 m/s 753 mmHg 87%
    04:00 +5°C° 0.7 mm 5 m/s 753 mmHg 86%
    05:00 +5°C° 0.7 mm 4 m/s 753 mmHg 86%
    06:00 +5°C° 0.7 mm 4 m/s 753 mmHg 85%
    07:00 +6°C° 0.8 mm 5 m/s 753 mmHg 83%
    08:00 +6°C° 0.8 mm 5 m/s 753 mmHg 81%
    09:00 +6°C° 0.8 mm 5 m/s 754 mmHg 79%
    10:00 +7°C° 0.2 mm 5 m/s 754 mmHg 75%
    11:00 +8°C° 0.2 mm 6 m/s 754 mmHg 71%
    12:00 +9°C° 0.2 mm 6 m/s 754 mmHg 67%
    13:00 +10°C° 0 mm 6 m/s 754 mmHg 65%
    14:00 +10°C° 0 mm 6 m/s 754 mmHg 63%
    15:00 +11°C° 0 mm 6 m/s 754 mmHg 61%
    16:00 +10°C° 0 mm 6 m/s 754 mmHg 64%
    17:00 +10°C° 0 mm 5 m/s 754 mmHg 66%
    18:00 +9°C° 0 mm 5 m/s 754 mmHg 68%
    19:00 +9°C° 0 mm 5 m/s 755 mmHg 70%
    20:00 +8°C° 0 mm 5 m/s 756 mmHg 73%
    21:00 +7°C° 0 mm 4 m/s 756 mmHg 75%
    22:00 +7°C° 0 mm 5 m/s 756 mmHg 75%
    23:00 +6°C° 0 mm 5 m/s 756 mmHg 76%

    Poimâine, 21 Aprilie, Duminică

    Timp Temperatura Precipitaţii Vânt Presiune Umiditate
    00:00 +6°C° 0 mm 5 m/s 756 mmHg 76%
    01:00 +6°C° 0 mm 5 m/s 756 mmHg 78%
    02:00 +5°C° 0 mm 4 m/s 756 mmHg 80%
    03:00 +5°C° 0 mm 3 m/s 756 mmHg 82%
    04:00 +5°C° 0 mm 3 m/s 756 mmHg 82%
    05:00 +5°C° 0 mm 3 m/s 756 mmHg 83%
    06:00 +5°C° 0 mm 3 m/s 756 mmHg 83%
    07:00 +7°C° 0 mm 3 m/s 756 mmHg 77%
    08:00 +8°C° 0 mm 4 m/s 756 mmHg 71%
    09:00 +9°C° 0 mm 5 m/s 756 mmHg 65%
    10:00 +9°C° 0 mm 5 m/s 756 mmHg 63%
    11:00 +10°C° 0 mm 5 m/s 756 mmHg 61%
    12:00 +12°C° 0 mm 5 m/s 755 mmHg 59%
    13:00 +12°C° 0 mm 5 m/s 755 mmHg 58%
    14:00 +12°C° 0 mm 5 m/s 755 mmHg 58%
    15:00 +13°C° 0 mm 5 m/s 754 mmHg 57%
    16:00 +12°C° 0 mm 4 m/s 754 mmHg 59%
    17:00 +12°C° 0 mm 4 m/s 755 mmHg 61%
    18:00 +12°C° 0 mm 4 m/s 755 mmHg 62%
    19:00 +11°C° 0 mm 4 m/s 755 mmHg 65%
    20:00 +11°C° 0 mm 4 m/s 756 mmHg 67%
    21:00 +10°C° 0 mm 4 m/s 757 mmHg 69%
    22:00 +10°C° 0 mm 4 m/s 757 mmHg 73%
    23:00 +8°C° 0 mm 4 m/s 757 mmHg 76%

    22 Aprilie, Luni

    Timp Temperatura Precipitaţii Vânt Presiune Umiditate
    00:00 +8°C° 0 mm 3 m/s 757 mmHg 79%
    01:00 +8°C° 0 mm 3 m/s 756 mmHg 81%
    02:00 +7°C° 0 mm 3 m/s 756 mmHg 83%
    03:00 +7°C° 0 mm 2 m/s 756 mmHg 85%
    04:00 +7°C° 0 mm 2 m/s 756 mmHg 84%
    05:00 +7°C° 0 mm 2 m/s 756 mmHg 84%
    06:00 +7°C° 0 mm 2 m/s 756 mmHg 83%
    07:00 +8°C° 0 mm 2 m/s 756 mmHg 77%
    08:00 +9°C° 0 mm 3 m/s 756 mmHg 72%
    09:00 +10°C° 0 mm 3 m/s 756 mmHg 66%
    10:00 +11°C° 0 mm 3 m/s 756 mmHg 61%
    11:00 +12°C° 0 mm 4 m/s 755 mmHg 56%
    12:00 +13°C° 0 mm 4 m/s 755 mmHg 51%
    13:00 +13°C° 0 mm 4 m/s 755 mmHg 52%
    14:00 +13°C° 0 mm 4 m/s 755 mmHg 52%
    15:00 +13°C° 0 mm 5 m/s 754 mmHg 53%
    16:00 +12°C° 0.1 mm 4 m/s 755 mmHg 56%
    17:00 +12°C° 0.1 mm 4 m/s 755 mmHg 59%
    18:00 +11°C° 0.1 mm 3 m/s 755 mmHg 62%
    19:00 +11°C° 0.4 mm 3 m/s 756 mmHg 65%
    20:00 +10°C° 0.4 mm 4 m/s 756 mmHg 67%
    21:00 +10°C° 0.4 mm 4 m/s 757 mmHg 70%
    22:00 +10°C° 0.3 mm 3 m/s 757 mmHg 72%
    23:00 +10°C° 0.3 mm 3 m/s 757 mmHg 74%

    23 Aprilie, Marţi

    Timp Temperatura Precipitaţii Vânt Presiune Umiditate
    00:00 +9°C° 0.3 mm 2 m/s 757 mmHg 76%
    01:00 +10°C° 0.1 mm 1 m/s 757 mmHg 78%
    02:00 +10°C° 0.1 mm 1 m/s 758 mmHg 79%
    03:00 +10°C° 0.1 mm 1 m/s 758 mmHg 81%
    04:00 +10°C° 0 mm 1 m/s 758 mmHg 80%
    05:00 +9°C° 0 mm 0 m/s 758 mmHg 80%
    06:00 +9°C° 0 mm 0 m/s 759 mmHg 80%
    07:00 +11°C° 0 mm 1 m/s 759 mmHg 75%
    08:00 +12°C° 0 mm 1 m/s 759 mmHg 70%
    09:00 +13°C° 0 mm 1 m/s 759 mmHg 65%
    10:00 +13°C° 0 mm 3 m/s 759 mmHg 59%
    11:00 +14°C° 0 mm 4 m/s 759 mmHg 53%
    12:00 +15°C° 0 mm 5 m/s 759 mmHg 47%
    13:00 +16°C° 0 mm 5 m/s 759 mmHg 45%
    14:00 +16°C° 0 mm 5 m/s 759 mmHg 43%
    15:00 +17°C° 0 mm 6 m/s 759 mmHg 41%
    16:00 +16°C° 0 mm 6 m/s 759 mmHg 44%
    17:00 +15°C° 0 mm 5 m/s 759 mmHg 48%
    18:00 +14°C° 0 mm 5 m/s 760 mmHg 52%
    19:00 +13°C° 0 mm 5 m/s 760 mmHg 54%
    20:00 +12°C° 0 mm 5 m/s 760 mmHg 55%
    21:00 +10°C° 0 mm 6 m/s 761 mmHg 57%
    22:00 +10°C° 0 mm 5 m/s 761 mmHg 58%
    23:00 +9°C° 0 mm 5 m/s 761 mmHg 59%

    24 Aprilie, Miercuri

    Timp Temperatura Precipitaţii Vânt Presiune Umiditate
    00:00 +8°C° 0 mm 4 m/s 761 mmHg 60%
    01:00 +9°C° 0 mm 3 m/s 761 mmHg 63%
    02:00 +9°C° 0 mm 3 m/s 761 mmHg 65%
    03:00 +8°C° 0 mm 2 m/s 761 mmHg 67%
    04:00 +8°C° 0 mm 2 m/s 761 mmHg 68%
    05:00 +9°C° 0 mm 1 m/s 762 mmHg 68%
    06:00 +9°C° 0 mm 1 m/s 762 mmHg 69%
    07:00 +10°C° 0 mm 1 m/s 762 mmHg 63%
    08:00 +12°C° 0 mm 2 m/s 762 mmHg 57%
    09:00 +12°C° 0 mm 3 m/s 762 mmHg 51%
    10:00 +13°C° 0 mm 3 m/s 761 mmHg 48%
    11:00 +14°C° 0 mm 3 m/s 761 mmHg 44%
    12:00 +16°C° 0 mm 3 m/s 760 mmHg 41%
    13:00 +16°C° 0 mm 2 m/s 760 mmHg 40%
    14:00 +17°C° 0 mm 2 m/s 759 mmHg 39%
    15:00 +17°C° 0 mm 2 m/s 759 mmHg 38%
    16:00 +17°C° 0 mm 2 m/s 759 mmHg 41%
    17:00 +17°C° 0 mm 3 m/s 759 mmHg 44%
    18:00 +16°C° 0 mm 3 m/s 759 mmHg 47%
    19:00 +14°C° 0 mm 3 m/s 759 mmHg 51%
    20:00 +13°C° 0 mm 4 m/s 759 mmHg 56%
    21:00 +12°C° 0 mm 5 m/s 759 mmHg 60%
    22:00 +11°C° 0 mm 4 m/s 759 mmHg 61%
    23:00 +11°C° 0 mm 4 m/s 759 mmHg 61%
    Arată mai mult